User: anonymous   Login
Location: Sabalos
(43.2860°N, 0.1414°E)
Time: 06:52:42
(UTC+00:00)
Language:

Cosmos 2360 Rocket - Orbit

View from above orbital plane
View from above orbital plane
View from above satellite
View from above satellite

Ground track
Ground track

The orbit data is extracted from the following two-line orbital elements,

1 25407U 98045B   20273.48036136 -.00000110 +00000-0 -31624-4 0  9993
2 25407 071.0125 038.9801 0007685 191.9530 168.1412 14.15826881145804
Epoch (UTC): 29 September 2020 11:31:43
Eccentricity: 0.0007685
inclination: 71.0125°
perigee height: 834 km
apogee height: 845 km
right ascension of ascending node: 38.9801°
argument of perigee: 191.9530°
revolutions per day: 14.15826881
mean anomaly at epoch: 168.1412°
orbit number at epoch: 14580

The dashed part of the orbit path shows where the satellite is in the earth's shadow,  

DLR